Weather History for Lima, OH

Change the Weather History Date:

Friday, August 2, 2013

  Actual Average (KFDY) Record (KFDY)
Temperature  
Mean Temperature 68 °F -  
Max Temperature 80 °F 82 °F 99 °F (1964)
Min Temperature 55 °F 62 °F 52 °F (1952)
Cooling Degree Days 2    
Growing Degree Days 18 (Base 50)    
Moisture  
Dew Point 61 °F    
Average Humidity 81    
Maximum Humidity 90    
Minimum Humidity 58    
Precipitation  
Precipitation 1.03 in - - ()
Sea Level Pressure  
Sea Level Pressure 29.96 in    
Wind  
Wind Speed 4 mph (SW)    
Max Wind Speed 15 mph    
Max Gust Speed 25 mph    
Visibility 7 miles    
Events Fog , Rain , Thunderstorm    
Averages and records for this station are not official NWS values.
T = Trace of Precipitation, MM = Missing Value Source: NWS Daily Summary

Daily Weather History Graph

Daily Weather History Graph

Search for Another Location

Airport:

Trip Planner

Search our weather history database for the weather conditions in past years. The results will help you decide how hot, cold, wet, or windy it might be!

Date:

Astronomy

Aug. 02, 2013 Rise Set
Actual Time 6:33 AM EDT 8:50 PM EDT
Civil Twilight 6:03 AM EDT 9:20 PM EDT
Nautical Twilight 5:25 AM EDT 9:58 PM EDT
Astronomical Twilight 4:44 AM EDT 10:39 PM EDT
Moon 2:54 AM EDT (8/2) 5:47 PM EDT (8/2)
Length of Visible Light 15h 17m
Length of Day
14h 16m
Waning Crescent, 16% of the Moon is Illuminated
Aug 2
Waning Crescent
Aug 6
New
Aug 14
First Quarter
Aug 20
Full
Aug 28
Last Quarter

Hourly Weather History & Observations

Time (EDT) Temp. Heat Index Dew Point Humidity Pressure Visibility Wind Dir Wind Speed Gust Speed Precip Events Conditions
12:53 AM 60.1 °F - 55.0 °F 83% 29.97 in 10.0 mi Calm Calm - N/A   Partly Cloudy
1:53 AM 57.9 °F - 54.0 °F 87% 29.97 in 10.0 mi Calm Calm - N/A   Scattered Clouds
2:53 AM 57.9 °F - 53.1 °F 84% 29.95 in 10.0 mi SW 3.5 mph - N/A   Partly Cloudy
3:53 AM 57.0 °F - 53.1 °F 87% 29.96 in 10.0 mi SSW 3.5 mph - N/A   Clear
4:53 AM 57.9 °F - 53.1 °F 84% 29.97 in 10.0 mi SSW 3.5 mph - N/A   Clear
5:53 AM 55.0 °F - 51.1 °F 86% 29.97 in 10.0 mi Calm Calm - N/A   Clear
6:53 AM 57.0 °F - 53.1 °F 87% 29.98 in 7.0 mi Calm Calm - N/A   Clear
7:53 AM 63.0 °F - 57.0 °F 81% 29.97 in 10.0 mi SSW 4.6 mph - N/A   Clear
8:53 AM 64.0 °F - 55.9 °F 75% 29.98 in 10.0 mi SSW 3.5 mph - 0.00 in Rain Light Rain
9:53 AM 66.0 °F - 57.9 °F 75% 29.98 in 10.0 mi South 3.5 mph - 0.00 in   Overcast
10:53 AM 68.0 °F - 59.0 °F 73% 29.99 in 10.0 mi South 6.9 mph - 0.00 in   Overcast
11:27 AM 66.2 °F - 59.0 °F 78% 30.03 in 1.8 mi WNW 4.6 mph - 0.05 in Rain Heavy Rain
11:39 AM 64.4 °F - 59.0 °F 83% 30.04 in 3.0 mi North 6.9 mph - 0.08 in Rain Light Rain
11:53 AM 64.0 °F - 59.0 °F 84% 30.04 in 3.0 mi North 3.5 mph - 0.12 in Rain Rain
12:53 PM 66.9 °F - 59.0 °F 76% 30.02 in 9.0 mi Calm Calm - 0.01 in   Overcast
1:53 PM 69.1 °F - 61.0 °F 75% 30.00 in 10.0 mi South 8.1 mph - 0.00 in   Mostly Cloudy
2:53 PM 71.1 °F - 62.1 °F 73% 29.96 in 10.0 mi South 9.2 mph - N/A   Mostly Cloudy
3:53 PM 73.0 °F - 62.1 °F 68% 29.95 in 10.0 mi South 10.4 mph - N/A   Overcast
4:53 PM 80.1 °F 81.7 °F 64.0 °F 58% 29.90 in 10.0 mi SSW 11.5 mph 25.3 mph N/A   Clear
5:53 PM 78.1 °F - 62.1 °F 58% 29.89 in 10.0 mi SSW 15.0 mph 20.7 mph N/A   Mostly Cloudy
6:53 PM 75.9 °F - 63.0 °F 64% 29.91 in 10.0 mi SW 10.4 mph 18.4 mph 0.00 in Rain Light Rain
7:25 PM 71.6 °F - 64.4 °F 78% 29.93 in 1.8 mi NW 9.2 mph - 0.07 in Rain Heavy Rain
7:35 PM 69.8 °F - 66.2 °F 88% 29.93 in 0.5 mi WNW 8.1 mph - 0.27 in Fog , Rain Heavy Rain
7:43 PM 69.8 °F - 66.2 °F 88% 29.94 in 1.0 mi SW 9.2 mph - 0.28 in Rain Light Rain
7:46 PM 71.6 °F - 66.2 °F 83% 29.94 in 4.0 mi SSW 10.4 mph - 0.28 in Rain Light Rain
7:53 PM 71.1 °F - 66.0 °F 84% 29.92 in 9.0 mi SW 5.8 mph - 0.28 in   Overcast
8:16 PM 69.8 °F - 66.2 °F 88% 29.94 in 2.5 mi South 3.5 mph - 0.04 in Rain Light Rain
8:23 PM 69.8 °F - 66.2 °F 88% 29.94 in 10.0 mi Calm Calm - 0.04 in   Overcast
8:53 PM 70.0 °F - 66.0 °F 87% 29.94 in 8.0 mi SSW 3.5 mph - 0.04 in   Overcast
9:48 PM 69.8 °F - 64.4 °F 83% 29.97 in 4.0 mi WSW 6.9 mph - 0.08 in Rain , Thunderstorm Rain
9:53 PM 69.1 °F - 64.9 °F 87% 29.96 in 3.0 mi WSW 8.1 mph - 0.10 in Rain , Thunderstorm Rain
10:04 PM 69.8 °F - 64.4 °F 83% 29.98 in 2.5 mi West 8.1 mph - 0.04 in Rain Rain
10:15 PM 68.0 °F - 64.4 °F 88% 29.96 in 1.0 mi SW 6.9 mph - 0.20 in Rain Heavy Rain
10:22 PM 68.0 °F - 64.4 °F 88% 29.96 in 3.0 mi SSW 5.8 mph - 0.21 in Rain Light Rain
10:53 PM 69.1 °F - 64.0 °F 84% 29.95 in 9.0 mi SSW 5.8 mph - 0.24 in Rain Light Rain
11:35 PM 68.0 °F - 64.4 °F 88% 29.97 in 1.8 mi Calm Calm - 0.14 in Rain Heavy Rain
11:53 PM 68.0 °F - 64.9 °F 90% 29.97 in 1.5 mi Calm Calm - 0.24 in Rain Heavy Rain